Regional Weather Roundup
Issued by NWS

Home | Current Version | Previous Version | Text Only | Print | Product List | Glossary Off
Versions: 1 2 3 4 5 6 7 8 9 10 11 12 13 14 15 16 17 18 19 20 21 22 23 24 25 26 27 28 29 30 31 32 33 34 35 36 37 38 39 40 41 42 43 44 45 46 47 48 49 50

000
ASUS45 KABQ 012201
RWRNM
NEW MEXICO REGIONAL WEATHER ROUNDUP
NATIONAL WEATHER SERVICE ALBUQUERQUE NM
400 PM MDT SUN MAY 01 2016

NOTE: "FAIR" MEANS FEW OR NO CLOUDS BELOW 12,000 FEET AGL WITH NO
       SIGNIFICANT WEATHER OR OBSTRUCTIONS TO VISION.

      THIS PRODUCT IS RELEASED AS TWO VERSIONS.  ONE VERSION NEAR
      THE TOP OF THE HOUR CONTAINING PRELIMINARY DATA FROM ALBUQUERQUE
      AND OTHER STATIONS.  A FINAL VERSION WITH ADDITIONAL DATA IS
      ISSUED ABOUT 10 MINUTES AFTER THE HOUR.

NMZ501-503-504-510>518-012300-
NORTHWEST PLATEAU/NORTHCENTRAL MOUNTAINS

CITY           SKY/WX    TMP DP  RH WIND       PRES   REMARKS
FARMINGTON     PTSUNNY   50  38  63 E9        30.04F
SANTA FE       CLOUDY    46  37  71 S10       30.13F
TAOS           CLOUDY    43  30  61 NW10      30.14F
ANGEL FIRE     CLOUDY    37  23  57 N17G23    30.17F WCI  28

$$
NMZ402-403-502-505>509-012300-
WESTCENTRAL MOUNTAINS/SOUTHWEST MOUNTAINS

CITY           SKY/WX    TMP DP  RH WIND       PRES   REMARKS
GALLUP         PTSUNNY   47  37  68 SE12      30.06F
GRANTS         LGT RAIN  40  35  83 SE8       30.11S WCI  34
SILVER CITY      N/A     64  19  17 SW17G24   29.98F

$$
NMZ407-409-411-412-012300-
SOUTHERN DESERTS

CITY           SKY/WX    TMP DP  RH WIND       PRES   REMARKS
LORDSBURG      CLOUDY    70  27  19 NE5       29.92S
DEMING         FAIR      73  11   9 S9G23     29.90F
HOLLOMAN AFB   FAIR      68  29  23 SW14G23   29.98R
ALAMOGORDO     FAIR      68  27  21 SW17G23   29.99R
T OR C         LGT RAIN  57  39  51 E12       30.00S

$$
NMZ519>523-012300-
CENTRAL VALLEYS/CENTRAL HIGHLANDS

CITY           SKY/WX    TMP DP  RH WIND       PRES   REMARKS
ALBUQUERQUE    PTSUNNY   49  30  48 E31G43    30.10R
DOUBLE EAGLE   PTSUNNY   48  30  49 E22G31    30.12R
MORIARTY ARPT  CLOUDY    41  29  62 E21G28    30.18F
CLINES CORNERS CLOUDY    34  30  85 E21G29    30.15F WCI  22
BELEN          CLOUDY    51  28  39 SE14G25   30.09R
SOCORRO        NOT AVBL

$$
NMZ524>526-539-540-012300-
SOUTHCENTRAL MOUNTAINS

CITY           SKY/WX    TMP DP  RH WIND       PRES   REMARKS
RUIDOSO        NOT AVBL

$$
NMZ527>531-012300-
NORTHEAST HIGHLANDS/NORTHEAST PLAINS

CITY           SKY/WX    TMP DP  RH WIND       PRES   REMARKS
LAS VEGAS      LGT SNOW  34  31  88 NE15      30.20  FOG     WCI  24
RATON          CLOUDY    40  26  57 N15       30.20S WCI  32
CLAYTON        LGT RAIN  39  36  89 N20       30.20F WCI  29

$$
NMZ532>537-012300-
EASTCENTRAL PLAINS

CITY           SKY/WX    TMP DP  RH WIND       PRES   REMARKS
TUCUMCARI      LGT RAIN  45  39  79 NE18      30.20F
CANNON AFB     CLOUDY    42  37  83 N21       30.18S
CLOVIS AIRPORT CLOUDY    43  34  70 N20       30.20S

$$
NMZ028-029-538-012300-
SOUTHEAST PLAINS

CITY           SKY/WX    TMP DP  RH WIND       PRES   REMARKS
ROSWELL        LGT RAIN  45  40  82 N14       30.18F
ARTESIA        CLOUDY    48  37  66 N17       30.17F
CARLSBAD       CLOUDY    51  36  56 N16       30.14F
HOBBS          CLOUDY    50  36  57 N17       30.14F


$$




USA.gov is the U.S. government's official web portal to all federal, state and local government web resources and services.